IRIDIUM 51 [-]

Last updated on Wed Jun 28 2023 00:03:02 GMT+0000 (Coordinated Universal Time)

1 25262U 98018A 23177.64926166 .00011420 00000+0 66597-3 0 9996 2 25262 86.3951 39.0188 0174990 45.7272 315.8164 14.99722582338019
UTC large
Height (km)
Speed (km/s)
/
Latitude / Longitude
Inclination (degrees)
Orbital Period (minutes)
Azimuth
Elevation
Range (km)
Doppler Factor

Next 0 passes for location: London (51.5072 / 0.1276)

Sorry there are no passes over London.